When you browse on this site, cookies collect data to enhance your experience and personalize the content and advertising you see.
Visit our Privacy Policy to learn more. By continuing to use the site, you agree to this use of cookies and data.
  • In Österreich
  • Länderverzeichnis
  • Für 7 Tage
  • Wassertemperatur
  • Wetterkarte
  • News
  • Widgets
  • user-avatar
    Anmelden

    Stündliche Wetter Kastoria

    Heute, 31 Mai, Sonntag

    Zeit Temperatur Niederschläge Wind Luftdruck Luftfeuchtigkeit
    00:00 +10°C° 0 mm 1 m/S 701 mmHg 89%
    01:00 +10°C° 0 mm 1 m/S 701 mmHg 88%
    02:00 +10°C° 0 mm 1 m/S 701 mmHg 88%
    03:00 +9°C° 0 mm 1 m/S 701 mmHg 89%
    04:00 +9°C° 0 mm 1 m/S 700 mmHg 89%
    05:00 +11°C° 0 mm 1 m/S 701 mmHg 84%
    06:00 +12°C° 0 mm 1 m/S 701 mmHg 80%
    07:00 +14°C° 0 mm 1 m/S 701 mmHg 75%
    08:00 +15°C° 0.2 mm 1 m/S 701 mmHg 70%
    09:00 +18°C° 0.2 mm 1 m/S 701 mmHg 65%
    10:00 +19°C° 0.2 mm 1 m/S 701 mmHg 61%
    11:00 +19°C° 1.2 mm 1 m/S 701 mmHg 62%
    12:00 +19°C° 1.2 mm 1 m/S 701 mmHg 63%
    13:00 +19°C° 1.2 mm 1 m/S 700 mmHg 64%
    14:00 +19°C° 1.5 mm 1 m/S 700 mmHg 65%
    15:00 +18°C° 1.5 mm 2 m/S 700 mmHg 67%
    16:00 +18°C° 1.5 mm 2 m/S 700 mmHg 68%
    17:00 +16°C° 0.6 mm 2 m/S 700 mmHg 73%
    18:00 +15°C° 0.6 mm 2 m/S 699 mmHg 78%
    19:00 +13°C° 0.6 mm 2 m/S 699 mmHg 83%
    20:00 +12°C° 0 mm 2 m/S 699 mmHg 85%
    21:00 +12°C° 0 mm 2 m/S 699 mmHg 87%
    22:00 +10°C° 0 mm 2 m/S 700 mmHg 89%
    23:00 +10°C° 0 mm 1 m/S 699 mmHg 89%

    Morgen, 1 Juni, Montag

    Zeit Temperatur Niederschläge Wind Luftdruck Luftfeuchtigkeit
    00:00 +10°C° 0 mm 1 m/S 699 mmHg 90%
    01:00 +10°C° 0 mm 1 m/S 699 mmHg 91%
    02:00 +9°C° 0 mm 1 m/S 699 mmHg 91%
    03:00 +9°C° 0 mm 1 m/S 699 mmHg 92%
    04:00 +9°C° 0 mm 1 m/S 699 mmHg 92%
    05:00 +10°C° 0.1 mm 1 m/S 699 mmHg 89%
    06:00 +12°C° 0.1 mm 2 m/S 699 mmHg 86%
    07:00 +13°C° 0.1 mm 2 m/S 700 mmHg 83%
    08:00 +14°C° 0.6 mm 2 m/S 700 mmHg 81%
    09:00 +14°C° 0.6 mm 2 m/S 700 mmHg 79%
    10:00 +14°C° 0.6 mm 3 m/S 700 mmHg 77%
    11:00 +13°C° 0.8 mm 3 m/S 699 mmHg 78%
    12:00 +13°C° 0.8 mm 3 m/S 699 mmHg 78%
    13:00 +13°C° 0.8 mm 3 m/S 699 mmHg 78%
    14:00 +15°C° 0.3 mm 2 m/S 699 mmHg 76%
    15:00 +15°C° 0.3 mm 2 m/S 699 mmHg 73%
    16:00 +16°C° 0.3 mm 2 m/S 699 mmHg 70%
    17:00 +15°C° 0.2 mm 2 m/S 699 mmHg 75%
    18:00 +14°C° 0.2 mm 1 m/S 699 mmHg 80%
    19:00 +12°C° 0.2 mm 1 m/S 699 mmHg 85%
    20:00 +12°C° 0 mm 1 m/S 699 mmHg 87%
    21:00 +11°C° 0 mm 1 m/S 699 mmHg 88%
    22:00 +11°C° 0 mm 1 m/S 699 mmHg 89%
    23:00 +10°C° 0 mm 1 m/S 699 mmHg 89%

    übermorgen, 2 Juni, Dienstag

    Zeit Temperatur Niederschläge Wind Luftdruck Luftfeuchtigkeit
    00:00 +10°C° 0 mm 1 m/S 699 mmHg 90%
    01:00 +9°C° 0 mm 2 m/S 698 mmHg 90%
    02:00 +8°C° 0 mm 2 m/S 698 mmHg 90%
    03:00 +8°C° 0 mm 2 m/S 698 mmHg 90%
    04:00 +9°C° 0 mm 1 m/S 698 mmHg 90%
    05:00 +10°C° 0 mm 2 m/S 698 mmHg 85%
    06:00 +13°C° 0 mm 2 m/S 699 mmHg 80%
    07:00 +14°C° 0 mm 2 m/S 699 mmHg 75%
    08:00 +16°C° 0 mm 3 m/S 699 mmHg 67%
    09:00 +17°C° 0 mm 3 m/S 700 mmHg 59%
    10:00 +18°C° 0 mm 3 m/S 700 mmHg 52%
    11:00 +19°C° 0 mm 3 m/S 700 mmHg 50%
    12:00 +19°C° 0 mm 3 m/S 699 mmHg 49%
    13:00 +20°C° 0 mm 2 m/S 699 mmHg 48%
    14:00 +20°C° 0.1 mm 2 m/S 699 mmHg 50%
    15:00 +20°C° 0.1 mm 2 m/S 699 mmHg 52%
    16:00 +19°C° 0.1 mm 2 m/S 698 mmHg 54%
    17:00 +18°C° 0.2 mm 2 m/S 698 mmHg 64%
    18:00 +16°C° 0.2 mm 1 m/S 698 mmHg 73%
    19:00 +14°C° 0.2 mm 1 m/S 698 mmHg 83%
    20:00 +13°C° 0.1 mm 1 m/S 698 mmHg 85%
    21:00 +12°C° 0.1 mm 1 m/S 698 mmHg 87%
    22:00 +12°C° 0.1 mm 1 m/S 698 mmHg 89%
    23:00 +11°C° 0 mm 1 m/S 698 mmHg 89%

    3 Juni, Mittwoch

    Zeit Temperatur Niederschläge Wind Luftdruck Luftfeuchtigkeit
    00:00 +11°C° 0 mm 1 m/S 698 mmHg 90%
    01:00 +10°C° 0 mm 1 m/S 698 mmHg 91%
    02:00 +10°C° 0 mm 1 m/S 697 mmHg 90%
    03:00 +9°C° 0 mm 1 m/S 697 mmHg 90%
    04:00 +9°C° 0 mm 1 m/S 697 mmHg 89%
    05:00 +11°C° 0 mm 1 m/S 698 mmHg 84%
    06:00 +13°C° 0 mm 1 m/S 698 mmHg 79%
    07:00 +14°C° 0 mm 1 m/S 698 mmHg 74%
    08:00 +16°C° 0.1 mm 1 m/S 699 mmHg 70%
    09:00 +18°C° 0.1 mm 1 m/S 699 mmHg 65%
    10:00 +20°C° 0.1 mm 1 m/S 699 mmHg 60%
    11:00 +20°C° 0.7 mm 1 m/S 699 mmHg 61%
    12:00 +20°C° 0.7 mm 1 m/S 699 mmHg 61%
    13:00 +19°C° 0.7 mm 2 m/S 699 mmHg 62%
    14:00 +19°C° 0.8 mm 2 m/S 699 mmHg 62%
    15:00 +19°C° 0.8 mm 2 m/S 699 mmHg 62%
    16:00 +19°C° 0.8 mm 2 m/S 699 mmHg 63%
    17:00 +18°C° 0.3 mm 2 m/S 699 mmHg 70%
    18:00 +16°C° 0.3 mm 1 m/S 699 mmHg 77%
    19:00 +14°C° 0.3 mm 1 m/S 699 mmHg 84%
    20:00 +13°C° 0 mm 1 m/S 699 mmHg 84%
    21:00 +13°C° 0 mm 1 m/S 700 mmHg 85%
    22:00 +12°C° 0 mm 1 m/S 700 mmHg 86%
    23:00 +12°C° 0 mm 1 m/S 700 mmHg 87%

    4 Juni, Donnerstag

    Zeit Temperatur Niederschläge Wind Luftdruck Luftfeuchtigkeit
    00:00 +11°C° 0 mm 1 m/S 700 mmHg 87%
    01:00 +11°C° 0 mm 1 m/S 700 mmHg 87%
    02:00 +11°C° 0 mm 1 m/S 700 mmHg 86%
    03:00 +10°C° 0 mm 1 m/S 700 mmHg 85%
    04:00 +10°C° 0 mm 1 m/S 700 mmHg 84%
    05:00 +12°C° 0 mm 1 m/S 700 mmHg 78%
    06:00 +14°C° 0 mm 1 m/S 701 mmHg 72%
    07:00 +16°C° 0 mm 1 m/S 701 mmHg 66%
    08:00 +19°C° 0 mm 1 m/S 702 mmHg 60%
    09:00 +21°C° 0 mm 1 m/S 702 mmHg 54%
    10:00 +22°C° 0 mm 1 m/S 703 mmHg 47%
    11:00 +23°C° 0 mm 1 m/S 703 mmHg 46%
    12:00 +24°C° 0 mm 2 m/S 703 mmHg 44%
    13:00 +25°C° 0 mm 2 m/S 703 mmHg 42%
    14:00 +24°C° 0 mm 2 m/S 703 mmHg 45%
    15:00 +24°C° 0 mm 2 m/S 703 mmHg 48%
    16:00 +24°C° 0 mm 2 m/S 703 mmHg 51%
    17:00 +21°C° 0 mm 2 m/S 702 mmHg 58%
    18:00 +19°C° 0 mm 2 m/S 702 mmHg 65%
    19:00 +18°C° 0 mm 1 m/S 702 mmHg 73%
    20:00 +16°C° 0 mm 1 m/S 702 mmHg 75%
    21:00 +15°C° 0 mm 1 m/S 702 mmHg 78%
    22:00 +15°C° 0 mm 1 m/S 703 mmHg 80%
    23:00 +14°C° 0 mm 1 m/S 703 mmHg 82%

    5 Juni, Freitag

    Zeit Temperatur Niederschläge Wind Luftdruck Luftfeuchtigkeit
    00:00 +14°C° 0 mm 1 m/S 702 mmHg 84%
    01:00 +13°C° 0 mm 1 m/S 702 mmHg 86%
    02:00 +13°C° 0 mm 1 m/S 702 mmHg 85%
    03:00 +13°C° 0 mm 1 m/S 702 mmHg 85%
    04:00 +12°C° 0 mm 1 m/S 702 mmHg 85%
    05:00 +14°C° 0 mm 1 m/S 703 mmHg 78%
    06:00 +16°C° 0 mm 1 m/S 703 mmHg 71%
    07:00 +19°C° 0 mm 1 m/S 704 mmHg 64%
    08:00 +21°C° 0 mm 1 m/S 704 mmHg 59%
    09:00 +23°C° 0 mm 1 m/S 705 mmHg 54%
    10:00 +24°C° 0 mm 1 m/S 705 mmHg 49%
    11:00 +25°C° 0 mm 2 m/S 705 mmHg 48%
    12:00 +26°C° 0 mm 2 m/S 705 mmHg 47%
    13:00 +27°C° 0 mm 2 m/S 705 mmHg 46%
    14:00 +27°C° 0 mm 2 m/S 705 mmHg 48%
    15:00 +27°C° 0 mm 2 m/S 705 mmHg 49%
    16:00 +27°C° 0 mm 3 m/S 705 mmHg 51%
    17:00 +25°C° 0 mm 2 m/S 705 mmHg 57%
    18:00 +23°C° 0 mm 2 m/S 704 mmHg 64%
    19:00 +21°C° 0 mm 1 m/S 704 mmHg 71%
    20:00 +20°C° 0 mm 1 m/S 704 mmHg 72%
    21:00 +20°C° 0 mm 1 m/S 704 mmHg 72%
    22:00 +19°C° 0 mm 1 m/S 705 mmHg 73%
    23:00 +19°C° 0 mm 1 m/S 705 mmHg 72%
    Mehr zeigen